Wind_Speed
10 11 12 11 9 10 10 9 12 14 16 20 23 25 25 24 24 24 24 25 25 24 24 22 22 21 21 21 20 19 18 17 16 16 15 14 13 13 13 13 13 12 11 10 10 10 9 8 9 9 9 9 9 8 8 8 7 6 6 7 5 5 5
5 9 10 10 11 10 10 14 17 15 15 18 19 22 24 23 22 22 23 24 25 24 24 23 22 21 21 20 19 19 19 18 17 16 15 15 14 14 14 13 13 13 11 10 10 11 11 11 10 10 10 10 10 10 9 9 9 8 7 8 7 6 6
5 4 6 6 8 10 11 13 11 8 12 17 19 20 22 21 20 21 21 22 23 23 23 23 22 22 21 20 19 19 19 19 18 17 16 16 15 15 14 13 13 13 13 11 10 11 12 12 12 11 11 10 10 11 11 10 10 9 8 8 8 7 7
8 7 5 3 6 8 8 8 6 2 9 14 19 22 19 18 19 20 19 21 22 23 23 23 23 22 21 20 20 19 20 20 19 18 17 16 16 15 15 15 14 13 14 13 13 12 12 12 12 12 11 11 10 11 11 11 11 10 9 8 8 7 7
9 9 7 2 6 8 6 7 11 10 12 19 16 16 15 15 18 19 19 21 23 23 24 24 23 22 21 21 20 19 20 20 19 19 18 17 16 16 16 16 15 15 14 14 14 14 13 13 13 13 12 12 11 11 12 11 11 11 11 10 9 8 8
9 9 8 7 4 6 3 4 9 14 19 22 14 12 15 14 15 18 19 21 23 22 23 24 24 23 22 22 20 19 20 20 19 19 18 17 17 17 17 16 16 16 15 15 15 14 14 14 13 13 13 12 12 12 12 12 12 11 11 11 10 9 8
7 7 8 10 8 6 4 6 11 13 16 15 12 14 17 13 12 16 17 19 21 22 25 26 26 25 23 22 21 20 20 20 20 20 19 18 19 18 17 17 17 16 16 15 15 15 15 15 14 14 13 13 12 12 12 12 12 12 12 12 11 10 9
9 9 9 10 10 10 9 8 10 12 10 5 9 13 14 12 14 15 13 15 19 23 25 25 23 23 22 21 21 20 20 20 20 20 20 20 20 19 19 18 17 17 16 16 16 16 16 16 16 15 14 14 13 13 12 12 12 12 12 12 11 11 10
11 11 11 12 11 11 13 15 13 9 6 6 7 8 8 9 13 11 7 14 21 21 22 22 21 20 20 19 19 19 20 19 19 20 20 20 20 21 21 20 19 18 18 18 17 16 16 16 16 16 16 15 14 14 13 13 13 13 12 12 12 12 11
12 12 13 13 13 13 14 17 18 17 14 12 10 10 8 3 7 8 7 13 18 17 15 18 20 20 18 17 18 18 19 19 19 20 20 21 21 21 21 21 20 20 19 19 18 17 17 17 17 17 17 17 16 16 15 14 14 14 13 13 13 12 12
11 12 13 14 14 14 16 17 17 18 17 15 14 13 13 11 6 3 5 11 12 11 11 10 11 15 17 18 18 19 19 20 20 20 21 21 21 21 21 21 21 21 21 20 19 19 18 18 18 18 18 18 18 18 17 16 16 15 14 14 14 14 13
10 11 13 14 14 14 14 15 17 18 18 17 16 15 15 14 13 13 7 3 10 13 12 8 9 11 14 17 18 18 19 19 20 20 21 21 21 21 21 21 21 21 21 21 21 20 20 19 20 20 20 20 19 19 19 18 17 17 16 16 15 15 14
10 10 11 12 13 14 14 14 16 18 18 17 17 17 16 15 14 16 15 10 2 6 8 7 10 13 12 13 16 18 19 19 20 20 20 21 21 21 21 21 21 21 21 21 21 21 21 21 21 21 21 21 21 20 20 19 19 19 18 18 17 16 15
11 11 12 12 13 14 15 14 15 17 18 18 19 18 17 16 15 14 14 14 13 9 7 6 8 9 11 12 13 14 16 18 19 20 20 20 20 21 21 21 20 21 21 21 21 22 22 22 22 21 21 22 22 22 21 20 20 20 20 20 19 18 17
12 12 12 13 13 13 13 13 14 16 17 18 19 19 18 17 17 15 13 12 12 13 12 12 11 9 7 11 13 14 14 14 16 17 18 19 19 19 21 21 20 20 20 21 21 21 21 22 22 22 22 22 22 22 22 22 22 22 22 21 20 20 19
12 12 12 12 12 12 12 13 14 15 16 17 18 18 18 17 16 16 14 12 12 13 13 13 12 11 9 7 7 9 11 11 12 14 15 16 17 18 18 19 20 21 21 21 22 21 21 21 22 22 22 22 22 22 22 23 23 24 24 24 22 21 21
11 11 11 12 11 11 11 12 14 15 15 16 16 16 15 15 15 15 14 12 11 11 12 13 14 14 12 10 8 8 8 9 10 10 10 12 14 16 17 18 19 20 21 21 22 22 21 21 21 22 22 22 22 22 22 23 23 25 27 27 26 23 21
10 10 11 11 11 11 11 11 13 15 15 14 14 14 14 13 13 14 13 12 11 10 10 11 13 15 15 12 9 9 8 7 9 11 11 11 12 13 15 16 17 19 20 21 22 23 23 22 22 22 22 22 22 22 23 23 23 25 27 29 30 29 25
9 9 10 10 10 10 11 11 12 14 14 13 13 12 12 13 13 13 13 12 12 11 10 11 12 12 14 13 10 8 7 8 10 11 11 13 15 15 15 15 17 18 20 21 21 21 22 23 23 22 22 22 22 23 23 23 23 24 26 28 30 31 30
8 8 9 9 10 10 10 11 12 12 13 13 13 12 12 12 12 12 12 13 13 12 10 11 12 11 12 13 9 5 8 13 14 14 13 14 15 16 16 15 17 17 18 20 20 20 21 22 22 22 22 22 22 23 23 23 23 24 25 28 29 30 31
7 8 8 8 9 9 10 11 12 12 12 12 12 13 13 13 12 12 12 12 13 13 12 10 11 12 12 12 9 6 8 12 13 13 15 14 14 15 15 16 17 17 17 19 19 17 18 19 20 21 22 22 22 22 23 25 25 24 24 26 28 29 30
6 7 7 8 8 9 9 11 12 12 12 11 11 12 13 14 14 13 12 12 12 12 12 11 11 12 12 11 9 8 10 12 13 13 14 12 13 16 17 17 18 17 16 19 20 17 16 19 20 20 21 22 22 23 23 24 25 27 27 27 27 28 29
5 6 7 8 8 8 8 10 12 11 11 10 10 12 13 13 13 12 11 12 12 11 11 12 12 12 12 12 12 12 11 11 12 13 14 12 13 17 18 18 19 18 16 17 20 20 20 20 20 21 22 22 23 23 24 24 25 27 28 29 30 29 30
5 5 6 7 8 8 8 11 12 11 10 10 10 11 12 12 12 11 11 12 12 11 11 11 12 13 13 12 13 13 12 11 11 12 14 15 14 15 16 18 18 18 18 19 21 23 23 21 20 21 22 22 23 24 24 24 24 25 27 29 31 31 32
4 4 5 6 7 8 9 11 11 10 10 10 10 12 12 11 11 11 11 12 12 11 11 11 12 13 14 13 13 13 13 13 12 12 13 15 16 16 14 16 19 19 20 20 21 23 24 23 22 22 22 22 24 25 25 25 25 26 27 29 30 32 33
4 5 5 6 7 8 9 10 9 9 11 11 11 12 12 11 10 10 10 11 11 11 11 12 12 13 14 14 14 14 14 13 13 13 13 14 16 17 16 15 18 19 20 19 20 22 24 23 22 22 23 24 24 24 25 26 25 26 28 29 30 32 34
5 6 7 7 8 8 8 8 7 9 10 10 11 12 11 10 11 10 10 10 10 10 11 11 12 13 14 14 15 14 13 13 13 13 13 13 14 16 16 15 16 17 19 20 22 24 26 25 24 24 24 23 23 24 25 26 26 26 28 29 31 31 33
5 6 7 8 9 8 8 8 8 9 9 10 10 11 11 11 11 11 11 11 10 11 11 11 12 13 13 14 14 14 13 13 13 13 13 12 13 15 16 15 15 16 17 18 21 24 25 24 23 24 25 23 24 26 26 25 26 27 28 30 31 33 33
5 6 7 8 9 9 10 10 10 10 11 11 10 10 10 11 11 11 12 12 12 12 11 11 12 13 13 14 14 14 13 13 13 13 13 12 13 14 16 16 16 17 18 18 19 21 23 22 22 24 25 24 25 25 25 24 25 26 29 30 30 32 33
5 5 6 7 8 9 10 11 11 12 12 11 11 11 10 10 11 11 12 12 12 12 12 12 13 13 13 14 14 14 15 14 13 13 13 13 13 14 15 15 16 17 18 18 19 20 20 19 19 20 21 22 22 23 23 23 24 25 26 26 27 30 32
6 6 6 7 8 10 11 12 12 13 13 12 12 12 12 11 12 12 12 12 12 12 12 13 13 13 13 14 14 15 16 15 14 14 14 13 13 14 15 15 16 17 18 18 18 18 18 17 16 16 17 19 20 20 19 19 21 24 24 23 24 27 29
7 7 7 7 8 10 12 14 14 14 14 13 13 13 13 12 13 14 14 13 13 13 13 13 13 14 14 14 15 15 15 16 16 15 15 14 14 14 15 16 17 17 17 18 18 17 16 16 15 14 15 16 16 16 19 22 23 25 26 24 22 22 22
8 8 8 8 8 9 11 13 14 15 16 16 15 15 14 14 14 14 15 15 14 14 14 14 15 15 15 15 15 15 15 16 17 17 17 16 16 16 15 15 15 15 15 16 17 16 16 16 16 14 14 14 12 13 19 24 23 21 22 23 22 19 17
9 9 10 10 10 9 9 10 12 15 17 18 17 17 16 15 15 15 16 16 16 15 15 15 15 16 16 16 16 16 16 16 17 18 18 18 17 15 14 14 14 15 15 16 16 15 15 15 15 14 13 12 11 15 21 23 20 18 21 22 22 18 12
9 11 12 12 12 11 11 11 12 14 16 17 18 18 18 17 16 16 16 16 16 16 16 15 16 16 17 17 17 16 16 16 16 16 17 17 16 15 14 16 16 17 18 19 18 19 19 20 21 19 17 15 15 18 19 18 15 15 16 17 17 15 12
10 11 12 13 14 14 14 14 14 14 15 16 17 18 18 18 18 17 16 16 15 16 17 17 17 17 17 17 17 16 16 16 16 16 15 15 16 17 17 18 19 19 21 23 25 26 27 27 27 26 23 23 24 25 23 21 20 20 19 19 20 19 19
11 12 13 14 16 16 17 17 16 16 16 16 16 16 17 18 18 18 17 17 16 16 17 18 18 18 18 17 17 17 17 17 17 17 17 17 18 19 20 20 21 21 23 25 26 26 25 23 23 22 21 24 29 30 29 29 29 30 30 30 30 29 29
11 12 14 15 16 17 18 18 18 18 17 16 16 16 17 17 18 18 19 19 18 18 19 19 19 19 19 19 19 19 18 18 18 18 18 19 19 19 20 21 21 22 22 21 21 22 21 21 20 19 19 21 26 29 30 30 29 29 30 30 29 27 26
Wind_Direction
166 178 189 187 187 196 198 208 220 211 196 189 189 190 187 186 185 181 179 180 180 182 182 182 184 185 188 189 189 189 188 189 192 194 196 195 196 196 194 195 198 199 196 188 186 185 183 183 184 187 187 188 194 192 191 195 196 194 194 198 200 192 198
155 182 185 183 186 193 197 203 206 203 199 195 193 194 190 187 186 181 178 180 181 183 182 182 185 186 188 190 188 189 189 189 191 192 195 195 195 196 196 197 197 199 200 192 183 182 184 184 186 190 190 192 197 197 197 198 197 199 198 197 201 197 198
63 145 163 181 191 189 194 198 192 192 208 201 191 195 194 187 187 184 178 176 181 184 183 184 186 186 188 189 188 190 190 190 192 193 196 195 194 195 195 197 198 197 199 196 186 184 185 185 187 191 193 197 200 199 202 201 199 201 199 198 205 200 196
69 70 95 172 198 190 183 175 149 162 251 229 198 195 197 189 188 186 174 174 183 187 185 186 188 188 188 188 189 190 190 192 194 195 198 197 195 195 194 195 199 199 199 198 195 193 189 187 188 192 195 200 202 201 203 204 202 203 201 202 209 204 199
71 57 51 64 193 194 171 158 161 171 233 243 214 192 196 194 193 186 174 179 190 191 188 189 190 188 188 189 191 191 191 193 195 196 200 200 196 196 197 197 199 201 202 200 200 199 196 193 192 193 196 199 203 203 204 206 205 204 204 206 212 209 204
62 56 42 42 119 177 171 181 178 177 209 222 203 186 200 200 198 194 186 188 196 196 192 192 193 188 186 190 192 191 191 192 194 196 198 199 200 199 199 201 200 202 204 202 202 200 199 200 198 195 197 200 202 203 203 206 207 206 204 206 212 215 212
57 65 57 52 73 106 134 192 204 206 213 202 169 185 205 205 205 205 200 195 197 200 200 196 193 188 186 190 191 190 191 191 192 195 197 199 201 202 201 202 203 204 205 204 204 203 201 201 202 201 201 202 203 204 203 204 207 208 206 207 210 214 217
47 52 55 56 62 70 85 120 168 199 215 175 139 167 183 190 200 201 204 209 209 209 207 201 194 186 185 188 191 191 192 193 192 193 197 199 200 202 203 202 203 204 205 205 204 205 204 203 204 205 205 205 204 205 203 201 205 209 208 209 210 212 216
47 44 45 51 53 53 56 63 79 104 124 115 110 127 142 175 195 191 208 233 234 226 210 201 195 187 183 187 191 194 194 195 196 195 197 201 201 203 203 202 203 203 205 207 206 205 206 206 206 206 206 208 207 206 206 202 203 209 209 210 212 212 215
47 46 45 48 49 49 49 47 49 54 62 74 83 84 79 106 186 183 197 221 236 244 228 209 198 186 183 189 191 195 197 197 199 200 201 204 204 204 204 203 203 203 205 209 208 206 206 206 208 207 205 208 209 207 208 206 205 208 211 211 212 213 214
49 47 47 48 47 47 46 43 42 41 41 47 58 64 57 47 60 105 202 211 226 257 262 245 220 194 188 195 197 197 200 201 203 203 204 207 208 207 206 205 204 203 205 209 211 209 206 204 206 207 206 208 209 208 208 209 209 210 213 214 213 213 215
54 49 46 47 48 49 46 42 42 41 39 40 41 46 47 42 42 39 29 206 217 236 242 250 259 232 204 201 203 201 201 203 206 207 206 208 211 211 209 208 206 204 203 207 211 211 208 205 204 206 208 208 209 210 210 210 211 212 214 217 216 214 217
64 60 53 48 47 48 47 44 42 40 40 42 40 39 40 37 35 34 31 35 24 246 233 235 259 255 231 212 208 206 206 205 207 210 210 210 212 214 214 212 210 207 204 205 209 211 211 208 204 205 207 208 209 210 211 212 213 215 215 217 219 218 218
71 67 60 52 48 46 44 42 41 38 37 40 39 37 36 33 30 30 28 25 21 10 357 339 310 280 251 236 227 216 211 209 208 209 211 212 213 215 217 218 216 213 208 205 206 210 213 211 208 206 206 208 209 210 211 212 213 215 216 217 220 220 220
74 68 61 53 48 46 44 41 40 37 36 38 37 35 33 28 23 23 25 20 14 9 359 349 345 335 284 250 244 236 226 220 216 212 210 212 214 215 218 221 221 219 215 212 210 210 213 215 212 209 208 209 210 210 212 213 214 215 215 215 217 220 222
71 68 64 57 50 45 44 42 40 38 36 37 37 36 32 26 20 17 18 18 11 0 351 343 340 338 326 304 287 273 258 245 236 223 213 213 216 216 219 222 223 224 222 219 217 214 215 218 217 214 212 211 212 213 213 216 218 217 215 213 214 217 222
66 64 62 61 54 47 44 41 38 36 35 35 36 36 34 28 22 19 18 20 14 359 348 341 337 334 333 336 343 335 308 283 282 276 250 233 224 218 220 224 225 227 227 224 223 221 219 221 222 221 218 216 216 217 218 221 222 219 216 214 214 215 219
66 61 57 58 55 48 42 40 38 35 32 31 32 34 35 32 26 23 20 19 17 8 357 349 344 344 346 345 343 339 321 292 302 306 282 263 252 235 229 230 229 229 229 226 224 223 221 222 224 226 227 226 223 222 223 225 226 224 220 218 218 219 221
62 59 55 51 53 50 41 36 37 34 29 27 26 29 34 33 30 26 19 15 15 12 10 8 2 357 359 2 359 338 301 275 288 298 279 263 260 252 245 240 236 235 233 229 225 223 223 223 224 226 228 231 232 231 230 230 228 225 223 221 222 224 225
52 53 52 46 44 45 38 32 32 33 28 24 22 25 29 30 30 27 20 17 15 10 9 15 17 15 8 4 4 337 288 284 291 293 285 273 268 265 263 260 253 247 244 240 232 225 224 224 225 226 227 229 233 234 235 235 233 229 225 223 225 227 228
49 42 42 42 39 36 31 26 24 25 22 18 18 21 22 21 22 23 21 20 16 8 6 15 23 24 15 5 3 350 319 313 309 298 289 284 278 272 271 273 269 264 265 265 257 242 233 232 229 228 229 229 229 232 234 235 235 234 231 227 226 227 228
52 37 29 31 31 29 26 19 16 16 11 8 15 19 16 14 13 13 15 18 15 7 5 13 21 20 16 10 6 358 342 335 331 319 303 290 275 263 259 260 258 256 266 275 270 260 248 241 235 230 229 230 230 231 234 234 233 233 233 232 230 228 227
62 42 25 20 16 19 23 15 8 6 1 360 9 14 11 8 7 7 9 9 6 3 4 10 15 12 7 5 3 360 352 341 335 328 316 301 283 269 265 263 255 246 244 248 248 247 243 241 241 236 231 229 229 230 233 235 234 231 231 231 230 228 226
71 46 29 13 359 3 12 5 357 353 349 352 2 5 1 359 1 3 6 4 357 355 360 7 8 3 359 358 357 354 349 342 337 332 323 313 303 287 272 266 262 254 247 242 242 244 242 241 244 243 237 233 231 229 231 234 234 232 231 231 231 230 227
50 32 19 360 355 2 359 348 342 339 338 346 355 353 348 350 354 356 0 359 351 349 355 2 2 355 350 350 350 350 347 342 339 337 329 321 318 313 295 275 266 258 252 249 246 244 244 243 242 241 239 238 236 233 232 233 234 233 231 231 230 230 229
16 12 355 346 1 3 343 329 330 332 335 344 348 341 338 342 345 347 351 348 344 345 351 354 352 347 341 341 343 344 343 340 340 340 334 325 319 319 314 297 278 262 252 250 249 249 248 245 242 242 241 239 240 238 236 235 235 234 232 231 230 230 228
1 356 346 347 355 348 328 321 330 330 330 336 335 330 333 336 334 335 337 334 333 338 342 344 342 337 334 334 335 333 331 331 335 335 332 329 322 316 314 307 290 272 261 257 258 258 256 251 249 249 247 244 244 244 242 242 241 239 237 233 231 231 228
3 351 346 344 340 337 331 330 331 327 324 328 327 325 328 328 325 325 325 322 323 327 330 333 333 329 327 325 324 323 323 325 327 325 322 324 324 320 316 309 297 285 276 268 266 265 263 262 260 257 255 255 254 251 248 248 248 248 247 240 235 233 230
13 355 347 337 332 340 340 333 330 328 325 324 323 323 323 320 318 318 314 313 316 319 319 323 325 322 319 317 315 316 317 317 318 317 314 313 314 313 311 309 302 293 284 275 270 268 266 264 263 260 260 262 261 257 256 256 255 254 254 250 242 235 232
10 353 344 335 334 343 340 331 328 326 323 321 322 322 320 316 312 308 306 307 311 312 313 315 315 313 309 308 307 308 310 310 310 309 307 307 305 299 296 298 297 290 282 274 269 268 266 263 261 260 260 262 262 262 262 264 265 265 265 264 257 247 240
354 349 342 334 337 340 333 325 322 319 318 320 322 321 318 315 311 306 305 307 309 308 306 306 306 306 304 303 302 301 303 303 302 300 299 297 296 291 290 291 288 284 282 278 274 271 269 267 265 263 263 265 267 270 274 279 285 286 282 273 263 253 245
339 341 338 335 338 336 328 322 319 317 316 318 320 320 318 315 312 308 308 308 306 303 301 300 301 300 298 296 295 295 297 298 298 297 296 293 290 286 283 280 274 270 272 275 275 275 273 273 271 266 267 269 271 278 285 284 281 279 271 263 259 255 248
331 333 331 331 331 328 324 320 318 318 318 317 318 319 316 313 311 309 308 308 306 302 301 300 299 297 295 293 292 291 292 293 293 293 292 290 285 280 274 272 272 271 270 271 274 275 274 273 271 266 266 267 267 276 279 273 269 272 271 269 269 263 253
322 321 321 322 321 320 319 315 313 314 313 313 314 315 313 311 310 309 308 308 307 305 302 299 297 295 293 292 289 287 285 283 282 283 284 283 281 277 275 277 280 282 281 280 284 288 293 296 293 285 281 280 275 270 268 265 268 276 275 270 268 265 260
313 314 315 316 316 317 315 310 308 307 306 307 309 310 309 308 307 307 307 307 307 307 304 300 297 294 292 290 287 283 281 279 276 275 275 276 277 277 277 276 275 276 277 279 281 286 295 305 306 301 301 302 293 280 273 271 273 272 267 263 265 270 278
306 308 311 313 313 314 312 309 307 304 301 301 302 303 304 304 304 305 306 305 307 306 303 301 298 294 291 289 286 285 284 284 282 280 280 280 282 284 283 280 276 275 275 277 279 281 283 288 291 292 293 292 286 279 276 276 274 270 268 269 270 271 278
304 309 312 313 312 311 309 309 307 304 301 300 298 298 298 299 301 302 303 303 304 302 301 300 298 294 292 289 287 287 287 286 284 284 283 282 282 284 285 285 283 280 277 278 284 288 288 287 285 285 285 284 282 281 279 278 276 274 273 273 273 274 278
305 307 307 306 305 304 305 306 306 306 305 304 301 298 296 296 297 298 300 301 300 298 296 295 292 290 288 286 285 285 283 280 278 278 277 276 276 277 280 282 283 283 282 282 285 289 291 289 286 286 286 285 285 286 284 282 281 281 279 276 275 275 275
Height
768 772 773 774 776 777 778 780 782 784 786 786 787 789 791 794 798 801 806 810 813 816 819 822 824 826 828 830 832 834 836 839 840 843 844 846 848 849 850 851 852 854 854 855 857 858 859 860 862 863 864 865 867 867 868 869 869 870 871 871 872 872 873
766 769 771 773 776 779 782 785 786 787 788 787 787 788 790 794 797 800 805 808 811 815 817 820 822 824 826 828 830 832 834 837 839 841 843 844 846 848 849 850 851 852 854 854 855 857 858 860 861 862 863 864 866 866 867 868 868 869 870 870 871 871 872
773 771 772 775 776 778 781 782 783 785 786 787 787 789 790 793 797 800 804 807 810 813 815 818 820 822 825 826 829 831 832 835 837 839 841 842 844 846 847 849 850 851 853 853 855 856 857 859 860 861 862 863 864 865 866 867 868 868 869 869 870 870 871
781 775 775 777 775 775 777 778 781 783 785 787 787 789 790 793 796 799 803 806 809 811 812 815 818 819 822 824 826 829 830 833 835 837 839 840 842 844 846 848 849 850 851 852 854 855 856 857 858 860 861 862 863 864 865 866 867 867 868 869 869 869 870
782 779 777 777 774 774 776 778 781 782 787 790 788 790 792 794 796 797 801 805 806 808 809 812 815 817 820 822 824 826 828 830 833 835 837 839 840 842 844 845 847 848 849 851 852 853 855 856 857 859 860 861 862 863 864 865 866 866 867 867 868 868 869
786 785 782 778 775 776 778 781 782 783 790 793 791 791 792 794 797 798 801 803 804 806 807 810 812 813 816 819 821 823 825 828 830 832 835 837 838 840 842 843 845 846 848 849 850 852 853 855 855 857 858 859 860 861 862 864 864 865 866 866 867 867 868
792 790 787 783 780 781 784 786 786 786 790 791 791 794 796 798 801 801 800 802 803 805 806 807 807 809 812 815 817 820 822 825 827 830 832 834 836 838 839 841 843 844 846 847 849 850 851 853 854 855 856 857 858 859 861 862 863 864 864 865 866 866 867
797 794 792 789 787 786 788 789 790 790 792 791 791 795 799 801 801 800 799 801 804 807 806 804 804 805 808 811 814 817 819 822 824 827 829 831 833 835 837 839 840 842 843 845 846 848 849 851 852 853 855 856 857 858 859 860 861 862 863 864 864 865 866
798 796 794 792 791 790 790 790 790 791 792 792 791 793 797 797 797 798 800 804 809 809 806 804 803 804 807 809 812 815 817 819 822 824 826 828 830 832 833 835 837 839 841 842 844 845 847 848 850 851 853 854 855 856 857 858 859 860 861 862 863 863 864
800 799 796 794 794 793 793 793 792 791 791 791 791 793 794 795 797 799 800 805 809 807 804 801 800 801 804 808 810 813 815 817 819 821 823 825 826 828 830 832 834 836 838 839 841 842 844 846 847 849 850 851 853 854 855 856 857 858 859 860 861 862 862
801 801 799 799 798 797 797 796 796 795 794 792 792 793 795 796 797 798 799 801 803 803 801 799 798 798 802 806 808 810 812 814 816 818 820 822 823 824 826 828 830 832 834 836 838 839 841 843 845 846 847 849 850 851 852 854 855 856 857 858 859 860 861
803 802 802 803 801 801 802 801 800 799 798 797 796 796 797 799 799 798 799 800 802 802 802 802 802 801 801 804 806 808 809 811 814 815 817 819 820 821 823 824 826 828 830 833 834 836 837 839 841 843 844 846 847 849 850 851 852 853 854 856 856 858 859
803 803 805 804 803 804 804 804 805 804 803 802 800 800 800 801 801 801 801 802 802 803 804 806 808 805 802 802 804 806 807 809 811 813 814 816 818 819 820 821 823 824 826 829 831 833 834 835 837 839 841 842 844 846 847 848 850 851 852 853 854 855 856
803 804 805 806 806 806 806 807 807 807 806 804 803 803 803 803 804 803 803 803 802 803 804 806 807 805 803 803 803 804 805 806 809 810 812 814 815 817 818 819 820 821 823 825 827 829 831 832 834 836 838 839 840 842 844 845 847 848 849 850 851 853 853
804 805 807 808 809 809 809 809 810 809 809 808 807 807 806 807 807 806 806 805 804 805 806 806 806 805 805 804 804 804 805 806 808 809 811 813 814 816 817 817 818 819 821 823 824 826 828 829 830 832 834 836 837 838 840 841 843 844 845 847 848 850 851
805 806 808 810 811 811 811 812 812 813 812 811 811 811 810 810 810 809 808 807 806 807 806 806 807 806 806 805 805 806 807 808 809 809 811 812 813 815 816 817 818 818 819 820 822 823 825 826 828 829 830 832 834 835 836 837 838 839 841 843 845 847 848
808 809 810 811 812 813 813 814 814 815 814 814 814 814 814 814 813 813 812 810 809 809 808 807 806 806 806 806 806 807 808 810 812 812 812 813 813 815 816 817 817 818 818 819 820 822 823 825 825 826 827 829 830 832 833 833 834 835 837 839 841 843 845
811 811 811 812 813 814 814 814 815 816 816 816 815 815 815 815 815 815 814 813 812 811 809 808 807 806 806 806 807 809 809 811 814 815 815 815 815 815 815 816 817 817 818 819 819 820 821 823 824 824 825 826 826 828 829 830 831 832 834 835 837 840 842
813 813 813 813 814 815 816 815 815 816 817 817 817 816 815 815 815 816 815 814 813 811 810 810 809 809 808 808 808 809 810 811 813 814 815 815 815 815 815 816 816 817 817 818 818 820 820 821 822 823 824 824 824 825 825 826 827 829 830 832 834 836 838
815 815 814 815 815 815 817 816 816 817 817 818 818 817 816 816 816 816 816 815 814 812 811 811 810 810 810 810 810 810 810 811 811 813 814 814 815 816 816 816 816 816 817 817 818 818 819 820 820 821 822 822 822 822 822 823 824 825 826 828 830 832 834
817 816 816 817 817 817 818 818 817 818 817 817 817 817 816 816 816 816 816 815 815 814 813 812 811 811 811 811 811 811 812 811 811 813 814 815 816 817 818 818 817 817 819 820 820 819 818 819 819 818 819 819 819 820 819 820 821 822 823 824 826 828 830
818 818 818 818 818 819 820 819 819 819 818 818 817 817 817 817 816 816 816 815 815 815 814 813 813 813 812 812 813 813 814 813 812 813 814 814 815 814 815 816 815 815 818 820 820 819 818 818 816 815 815 815 816 816 816 816 817 818 819 821 822 824 826
819 820 819 819 819 820 820 821 821 820 820 819 818 818 818 818 818 817 817 816 815 815 814 814 814 814 813 813 812 812 813 813 813 813 813 813 813 813 813 813 812 812 814 814 814 814 815 815 813 812 811 811 811 812 811 812 813 814 815 817 818 820 822
820 820 820 821 821 820 821 822 822 821 821 819 819 819 819 819 819 818 818 818 816 815 814 814 814 814 813 812 812 811 812 813 813 814 813 813 813 814 814 814 813 812 811 810 809 810 811 812 811 809 808 807 807 807 807 807 808 810 811 813 814 816 818
820 821 822 822 822 822 823 823 823 822 821 819 820 820 820 819 819 819 819 818 817 816 815 814 814 814 813 813 812 811 812 812 812 813 813 812 812 813 813 813 812 810 810 808 808 809 809 808 807 805 804 804 803 802 803 803 803 805 806 808 810 812 813
821 822 823 822 823 824 825 824 823 822 821 820 821 821 820 820 820 819 820 819 818 817 816 815 815 814 814 813 812 811 812 812 812 812 812 812 811 810 811 811 808 807 808 807 808 808 807 805 803 801 801 801 800 799 799 799 799 800 801 803 805 807 809
822 822 823 823 824 825 825 824 823 823 822 822 822 821 820 820 820 820 820 820 819 818 817 817 816 815 814 813 812 812 812 811 812 812 812 811 810 809 810 809 808 807 807 806 807 806 805 802 801 799 798 798 797 796 796 796 796 797 798 799 800 802 804
822 823 824 824 824 824 824 824 823 824 823 822 822 822 821 820 820 820 820 820 819 818 817 817 816 815 814 813 812 812 811 811 811 812 812 811 810 809 808 808 808 807 806 806 806 804 803 801 799 797 796 796 795 794 793 793 794 795 796 796 797 798 800
824 824 824 824 824 824 824 824 824 824 823 823 823 822 821 821 821 820 820 819 819 818 818 817 816 815 814 813 812 812 811 811 811 811 811 810 810 809 808 807 806 806 805 805 804 802 800 798 797 796 795 794 793 793 792 792 793 794 795 794 794 795 796
824 825 825 825 825 824 825 825 824 823 823 822 822 822 822 821 821 820 820 819 818 818 817 816 816 815 814 813 812 811 810 810 809 809 808 808 808 808 807 806 805 804 803 803 802 799 796 795 794 794 793 792 791 791 791 791 791 793 794 794 794 793 793
825 826 826 826 825 825 826 825 824 823 823 822 822 822 821 820 820 819 819 819 818 818 817 816 815 814 813 812 811 810 809 808 808 808 807 806 806 806 805 804 804 803 802 800 799 796 794 793 792 791 790 790 789 790 790 791 791 793 794 795 794 792 789
825 826 827 827 827 827 826 825 823 823 822 821 821 821 820 820 819 818 818 818 817 817 816 815 814 813 813 812 810 809 808 807 806 806 805 805 804 803 803 802 801 801 800 798 797 794 792 791 790 789 789 788 789 790 790 789 789 790 791 792 791 788 787
825 826 827 827 828 828 827 825 824 822 821 821 821 820 820 820 819 818 817 817 816 815 815 814 813 812 811 810 809 808 807 806 804 803 803 803 802 801 800 799 799 798 797 796 794 793 791 789 788 787 787 786 787 787 786 785 785 786 787 789 789 787 785
825 825 826 826 827 828 828 827 825 824 822 821 820 820 820 819 818 818 817 816 815 814 813 812 812 811 809 808 807 806 805 804 803 802 800 799 799 798 797 797 797 796 795 794 793 791 789 788 787 785 785 784 784 784 782 781 783 785 785 787 787 785 784
824 824 824 825 825 826 826 827 826 826 824 822 821 820 819 818 818 817 816 815 814 813 812 811 810 809 808 807 805 804 803 802 800 799 798 796 795 795 795 795 795 794 793 792 791 790 789 788 787 785 785 784 783 781 779 779 781 782 783 783 783 783 783
824 824 823 823 823 823 824 824 825 825 824 823 821 820 818 817 816 816 815 815 814 812 811 810 809 807 806 805 803 802 801 799 798 796 796 795 794 793 792 791 791 790 789 788 787 787 787 787 786 785 785 784 782 779 778 778 778 778 779 779 779 779 779
824 823 823 823 823 822 822 822 822 822 822 822 821 820 819 817 815 814 814 813 813 812 811 809 808 806 804 803 802 801 800 799 797 796 795 794 793 792 790 788 787 786 785 784 783 782 783 783 782 782 783 783 780 777 776 776 776 776 775 775 775 775 775
824 824 824 823 822 822 821 820 819 819 819 819 820 819 818 817 816 814 813 812 811 811 809 808 807 805 803 802 800 800 799 798 797 796 795 793 792 791 789 787 784 782 780 780 779 778 778 778 778 778 779 779 778 775 773 773 774 774 773 772 772 773 772